レモン彗星

C/2023 S3 ( Lemmon )

English version
Home page
Updated on June 5, 2024

---------------------------------------------------------------------

・ プロフィール

発見日 2023年9月25日
発見光度 19.9等
発見者 Mt. Lemmon

・ 写真集

・ 軌道要素

Epoch 2024 Mar. 31.0 TT = JDT 2460400.5
T 2024 Jan. 19.62438 TT                                 Rudenko
q   0.8301589            (2000.0)            P               Q
n   0.00648582     Peri.  281.57250     +0.49187323     -0.70309676
a  28.4769161      Node   233.83374     -0.30998319     -0.69258464
e   0.9708480      Incl.  140.49802     -0.81361609     -0.16118767
P 152
>From 690 observations 2023 Sept. 25-2024 May 12, mean residual 0".7.

・ 星図

・ 光度変化

        m1 = 16.0 + 5 logΔ + 10.0 log r  [   ,-72]  (              〜2023年11月 8日)
        m1 = 12.5 + 5 logΔ + 30.0 log r  [-72, 60]  (2023年11月 8日〜2024年 3月19日)
        m1 = 15.0 + 5 logΔ + 10.0 log r  [ 60,   ]  (2024年 3月19日〜              )

---------------------------------------------------------------------

軌道要素はM.P.E.C. 2024-J304に掲載されたものです。
星図はステラナビゲータ Ver.11 (アストロアーツ) で作成したものです。
光度グラフはComet for Windowsで作成したものです。

---------------------------------------------------------------------

Copyright(C) Seiichi Yoshida (comet@aerith.net). All rights reserved.